LAPAN-A2 (40931 NORAD) Tracking and Keplerian Element Data

This shows tracking and keplerian element data for the satellite.

Feedback or suggestion? Click here.




ElementValue
Catalog40931
NameLAPAN-A2
Epoch Orbit25822
Epoch Day189.47660273
Epoch Year2020
RAAN192.6069
Inclination5.9996
Eccentricity0.0012844
Argument of Perigee202.7735
Mean Anonmoly157.2431
Mean Motion14.76637755
Decay Rate6.7E-06
L11 40931U 15052B 20189.47660273 .00000670 00000-0 42472-5 0 9992
L22 40931 5.9996 192.6069 0012844 202.7735 157.2431 14.76637755258228

Live tracking and technical data element details for LAPAN-A2 (NORAD 40931). LAPAN-A2 can be tracked NOW for your location showing map with azimuth and elevation plus other details from your city location.

Track the satellite on the map from your city or location and see movement details for azimuth, elevation, latitude, longitude, range, height, and movement on the map or in text.







IsCatalogInMostPopularTable: catalog: 40931, numindb: 462
Update: records affected: 1



GetName: 40931 LAPAN-A2

Hit Count: updated at: Wed, 08 Jul 2020 22:13:04 GMT